Year,Month,Day,Hour,Minute,Value (Times are PST for temperature in C)
2017,06,26,00,00,19.90
2017,06,26,00,01,19.90
2017,06,26,00,02,19.90
2017,06,26,00,03,19.90
2017,06,26,00,04,19.90
2017,06,26,00,05,19.90
2017,06,26,00,06,19.90
2017,06,26,00,07,19.90
2017,06,26,00,08,19.90
2017,06,26,00,09,19.90
2017,06,26,00,10,19.90
2017,06,26,00,11,19.90
2017,06,26,00,12,19.90
2017,06,26,00,13,19.90
2017,06,26,00,14,19.90
2017,06,26,00,15,19.90
2017,06,26,00,16,19.90
2017,06,26,00,17,20.00
2017,06,26,00,18,20.10
2017,06,26,00,19,20.10
2017,06,26,00,20,20.10
2017,06,26,00,21,20.10
2017,06,26,00,22,20.10
2017,06,26,00,23,20.10
2017,06,26,00,24,20.10
2017,06,26,00,25,20.00
2017,06,26,00,26,19.90
2017,06,26,00,27,19.90
2017,06,26,00,28,19.90
2017,06,26,00,29,19.90
2017,06,26,00,30,19.90
2017,06,26,00,31,19.90
2017,06,26,00,32,19.90
2017,06,26,00,33,19.80
2017,06,26,00,34,19.80
2017,06,26,00,35,19.80
2017,06,26,00,36,19.80
2017,06,26,00,37,19.80
2017,06,26,00,38,19.70
2017,06,26,00,39,19.70
2017,06,26,00,40,19.70
2017,06,26,00,41,19.70
2017,06,26,00,42,19.70
2017,06,26,00,43,19.70
2017,06,26,00,44,19.70
2017,06,26,00,45,19.80
2017,06,26,00,46,19.80
2017,06,26,00,47,19.80
2017,06,26,00,48,19.80
2017,06,26,00,49,19.80
2017,06,26,00,50,19.80
2017,06,26,00,51,19.80
2017,06,26,00,52,19.80
2017,06,26,00,53,19.80
2017,06,26,00,54,19.80
2017,06,26,00,55,19.80
2017,06,26,00,56,19.80
2017,06,26,00,57,19.80
2017,06,26,00,58,19.80
2017,06,26,00,59,19.80
2017,06,26,01,00,19.80
2017,06,26,01,01,19.80
2017,06,26,01,02,19.80
2017,06,26,01,03,19.80
2017,06,26,01,04,19.90
2017,06,26,01,05,19.90
2017,06,26,01,06,19.90
2017,06,26,01,07,20.00
2017,06,26,01,08,20.10
2017,06,26,01,09,20.10
2017,06,26,01,10,20.20
2017,06,26,01,11,20.20
2017,06,26,01,12,20.20
2017,06,26,01,13,20.20
2017,06,26,01,14,20.20
2017,06,26,01,15,20.20
2017,06,26,01,16,20.20
2017,06,26,01,17,20.20
2017,06,26,01,18,20.20
2017,06,26,01,19,20.20
2017,06,26,01,20,20.20
2017,06,26,01,21,20.20
2017,06,26,01,22,20.20
2017,06,26,01,23,20.20
2017,06,26,01,24,20.20
2017,06,26,01,25,20.20
2017,06,26,01,26,20.20
2017,06,26,01,27,20.20
2017,06,26,01,28,20.20
2017,06,26,01,29,20.20
2017,06,26,01,30,20.20
2017,06,26,01,31,20.20
2017,06,26,01,32,20.20
2017,06,26,01,33,20.20
2017,06,26,01,34,20.20
2017,06,26,01,35,20.20
2017,06,26,01,36,20.20
2017,06,26,01,37,20.20
2017,06,26,01,38,20.20
2017,06,26,01,39,20.20
2017,06,26,01,40,20.30
2017,06,26,01,41,20.30
2017,06,26,01,42,20.30
2017,06,26,01,43,20.30
2017,06,26,01,44,20.30
2017,06,26,01,45,20.20
2017,06,26,01,46,20.20
2017,06,26,01,47,20.20
2017,06,26,01,48,20.20
2017,06,26,01,49,20.10
2017,06,26,01,50,20.10
2017,06,26,01,51,20.10
2017,06,26,01,52,20.10
2017,06,26,01,53,20.10
2017,06,26,01,54,20.10
2017,06,26,01,55,20.10
2017,06,26,01,56,20.10
2017,06,26,01,57,20.20
2017,06,26,01,58,20.20
2017,06,26,01,59,20.30
2017,06,26,02,00,20.40
2017,06,26,02,01,20.50
2017,06,26,02,02,20.60
2017,06,26,02,03,20.70
2017,06,26,02,04,20.80
2017,06,26,02,05,20.90
2017,06,26,02,06,21.00
2017,06,26,02,07,21.00
2017,06,26,02,08,21.00
2017,06,26,02,09,21.10
2017,06,26,02,10,21.10
2017,06,26,02,11,21.10
2017,06,26,02,12,21.00
2017,06,26,02,13,21.00
2017,06,26,02,14,20.90
2017,06,26,02,15,20.80
2017,06,26,02,16,20.80
2017,06,26,02,17,20.70
2017,06,26,02,18,20.70
2017,06,26,02,19,20.60
2017,06,26,02,20,20.60
2017,06,26,02,21,20.70
2017,06,26,02,22,20.70
2017,06,26,02,23,20.70
2017,06,26,02,24,20.70
2017,06,26,02,25,20.70
2017,06,26,02,26,20.70
2017,06,26,02,27,20.60
2017,06,26,02,28,20.60
2017,06,26,02,29,20.60
2017,06,26,02,30,20.50
2017,06,26,02,31,20.50
2017,06,26,02,32,20.50
2017,06,26,02,33,20.50
2017,06,26,02,34,20.50
2017,06,26,02,35,20.60
2017,06,26,02,36,20.60
2017,06,26,02,37,20.70
2017,06,26,02,38,20.80
2017,06,26,02,39,20.90
2017,06,26,02,40,21.00
2017,06,26,02,41,21.10
2017,06,26,02,42,21.20
2017,06,26,02,43,21.30
2017,06,26,02,44,21.30
2017,06,26,02,45,21.30
2017,06,26,02,46,21.40
2017,06,26,02,47,21.50
2017,06,26,02,48,21.60
2017,06,26,02,49,21.60
2017,06,26,02,50,21.60
2017,06,26,02,51,21.70
2017,06,26,02,52,21.80
2017,06,26,02,53,21.80
2017,06,26,02,54,21.80
2017,06,26,02,55,21.90
2017,06,26,02,56,22.00
2017,06,26,02,57,22.00
2017,06,26,02,58,22.10
2017,06,26,02,59,22.20
2017,06,26,03,00,22.20
2017,06,26,03,01,22.20
2017,06,26,03,02,22.30
2017,06,26,03,03,22.30
2017,06,26,03,04,22.30
2017,06,26,03,05,22.30
2017,06,26,03,06,22.30
2017,06,26,03,07,22.30
2017,06,26,03,08,22.30
2017,06,26,03,09,22.30
2017,06,26,03,10,22.30
2017,06,26,03,11,22.30
2017,06,26,03,12,22.30
2017,06,26,03,13,22.20
2017,06,26,03,14,22.20
2017,06,26,03,15,22.20
2017,06,26,03,16,22.20
2017,06,26,03,17,22.10
2017,06,26,03,18,22.10
2017,06,26,03,19,22.10
2017,06,26,03,20,22.10
2017,06,26,03,21,22.00
2017,06,26,03,22,22.00
2017,06,26,03,23,22.10
2017,06,26,03,24,22.10
2017,06,26,03,25,22.00
2017,06,26,03,26,22.00
2017,06,26,03,27,22.00
2017,06,26,03,28,22.00
2017,06,26,03,29,22.00
2017,06,26,03,30,22.00
2017,06,26,03,31,22.10
2017,06,26,03,32,22.10
2017,06,26,03,33,22.00
2017,06,26,03,34,22.00
2017,06,26,03,35,22.00
2017,06,26,03,36,21.90
2017,06,26,03,37,21.80
2017,06,26,03,38,21.70
2017,06,26,03,39,21.60
2017,06,26,03,40,21.60
2017,06,26,03,41,21.50
2017,06,26,03,42,21.40
2017,06,26,03,43,21.30
2017,06,26,03,44,21.20
2017,06,26,03,45,21.10
2017,06,26,03,46,21.00
2017,06,26,03,47,20.90
2017,06,26,03,48,20.80
2017,06,26,03,49,20.70
2017,06,26,03,50,20.60
2017,06,26,03,51,20.60
2017,06,26,03,52,20.50
2017,06,26,03,53,20.40
2017,06,26,03,54,20.40
2017,06,26,03,55,20.30
2017,06,26,03,56,20.20
2017,06,26,03,57,20.20
2017,06,26,03,58,20.20
2017,06,26,03,59,20.10
2017,06,26,04,00,20.10
2017,06,26,04,01,19.90
2017,06,26,04,02,19.90
2017,06,26,04,03,19.90
2017,06,26,04,04,19.90
2017,06,26,04,05,19.80
2017,06,26,04,06,19.80
2017,06,26,04,07,19.80
2017,06,26,04,08,19.70
2017,06,26,04,09,19.70
2017,06,26,04,10,19.60
2017,06,26,04,11,19.50
2017,06,26,04,12,19.50
2017,06,26,04,13,19.40
2017,06,26,04,14,19.40
2017,06,26,04,15,19.30
2017,06,26,04,16,19.30
2017,06,26,04,17,19.30
2017,06,26,04,18,19.30
2017,06,26,04,19,19.20
2017,06,26,04,20,19.20
2017,06,26,04,21,19.10
2017,06,26,04,22,18.90
2017,06,26,04,23,18.50
2017,06,26,04,24,18.10
2017,06,26,04,25,17.70
2017,06,26,04,26,17.40
2017,06,26,04,27,17.10
2017,06,26,04,28,16.90
2017,06,26,04,29,16.70
2017,06,26,04,30,16.50
2017,06,26,04,31,16.30
2017,06,26,04,32,16.10
2017,06,26,04,33,15.90
2017,06,26,04,34,15.80
2017,06,26,04,35,15.60
2017,06,26,04,36,15.40
2017,06,26,04,37,15.30
2017,06,26,04,38,15.20
2017,06,26,04,39,15.10
2017,06,26,04,40,15.00
2017,06,26,04,41,14.90
2017,06,26,04,42,14.90
2017,06,26,04,43,14.80
2017,06,26,04,44,14.80
2017,06,26,04,45,14.80
2017,06,26,04,46,14.80
2017,06,26,04,47,14.80
2017,06,26,04,48,14.80
2017,06,26,04,49,14.80
2017,06,26,04,50,14.80
2017,06,26,04,51,14.80
2017,06,26,04,52,14.80
2017,06,26,04,53,14.80
2017,06,26,04,54,14.80
2017,06,26,04,55,14.80
2017,06,26,04,56,14.80
2017,06,26,04,57,14.80
2017,06,26,04,58,14.70
2017,06,26,04,59,14.70
2017,06,26,05,00,14.70
2017,06,26,05,01,14.70
2017,06,26,05,02,14.70
2017,06,26,05,03,14.70
2017,06,26,05,04,14.70
2017,06,26,05,05,14.70
2017,06,26,05,06,14.60
2017,06,26,05,07,14.60
2017,06,26,05,08,14.60
2017,06,26,05,09,14.60
2017,06,26,05,10,14.60
2017,06,26,05,11,14.60
2017,06,26,05,12,14.60
2017,06,26,05,13,14.50
2017,06,26,05,14,14.50
2017,06,26,05,15,14.50
2017,06,26,05,16,14.50
2017,06,26,05,17,14.60
2017,06,26,05,18,14.60
2017,06,26,05,19,14.60
2017,06,26,05,20,14.70
2017,06,26,05,21,14.80
2017,06,26,05,22,14.80
2017,06,26,05,23,14.80
2017,06,26,05,24,14.90
2017,06,26,05,25,14.90
2017,06,26,05,26,15.00
2017,06,26,05,27,15.00
2017,06,26,05,28,15.00
2017,06,26,05,29,15.10
2017,06,26,05,30,15.10
2017,06,26,05,31,15.10
2017,06,26,05,32,15.10
2017,06,26,05,33,15.00
2017,06,26,05,34,15.00
2017,06,26,05,35,15.00
2017,06,26,05,36,15.00
2017,06,26,05,37,15.00
2017,06,26,05,38,15.00
2017,06,26,05,39,14.90
2017,06,26,05,40,14.90
2017,06,26,05,41,14.90
2017,06,26,05,42,14.90
2017,06,26,05,43,14.90
2017,06,26,05,44,14.90
2017,06,26,05,45,14.90
2017,06,26,05,46,15.00
2017,06,26,05,47,14.90
2017,06,26,05,48,14.90
2017,06,26,05,49,14.80
2017,06,26,05,50,14.80
2017,06,26,05,51,14.80
2017,06,26,05,52,14.80
2017,06,26,05,53,14.80
2017,06,26,05,54,14.80
2017,06,26,05,55,14.80
2017,06,26,05,56,14.80
2017,06,26,05,57,14.80
2017,06,26,05,58,14.90
2017,06,26,05,59,14.90
2017,06,26,06,00,14.90
2017,06,26,06,01,14.90
2017,06,26,06,02,14.90
2017,06,26,06,03,14.90
2017,06,26,06,04,14.90
2017,06,26,06,05,14.80
2017,06,26,06,06,14.70
2017,06,26,06,07,14.60
2017,06,26,06,08,14.50
2017,06,26,06,09,14.40
2017,06,26,06,10,14.30
2017,06,26,06,11,14.20
2017,06,26,06,12,14.20
2017,06,26,06,13,14.20
2017,06,26,06,14,14.20
2017,06,26,06,15,14.20
2017,06,26,06,16,14.20
2017,06,26,06,17,14.20
2017,06,26,06,18,14.20
2017,06,26,06,19,14.20
2017,06,26,06,20,14.20
2017,06,26,06,21,14.20
2017,06,26,06,22,14.20
2017,06,26,06,23,14.20
2017,06,26,06,24,14.20
2017,06,26,06,25,14.20
2017,06,26,06,26,14.30
2017,06,26,06,27,14.40
2017,06,26,06,28,14.50
2017,06,26,06,29,14.50
2017,06,26,06,30,14.60
2017,06,26,06,31,14.60
2017,06,26,06,32,14.60
2017,06,26,06,33,14.70
2017,06,26,06,34,14.70
2017,06,26,06,35,14.70
2017,06,26,06,36,14.80
2017,06,26,06,37,14.80
2017,06,26,06,38,14.80
2017,06,26,06,39,14.80
2017,06,26,06,40,14.90
2017,06,26,06,41,15.00
2017,06,26,06,42,15.10
2017,06,26,06,43,15.20
2017,06,26,06,44,15.30
2017,06,26,06,45,15.40
2017,06,26,06,46,15.40
2017,06,26,06,47,15.50
2017,06,26,06,48,15.50
2017,06,26,06,49,15.60
2017,06,26,06,50,15.70
2017,06,26,06,51,15.80
2017,06,26,06,52,15.80
2017,06,26,06,53,15.80
2017,06,26,06,54,15.90
2017,06,26,06,55,15.90
2017,06,26,06,56,15.90
2017,06,26,06,57,16.00
2017,06,26,06,58,16.10
2017,06,26,06,59,16.10
2017,06,26,07,00,16.10
2017,06,26,07,01,16.20
2017,06,26,07,02,16.20
2017,06,26,07,03,16.20
2017,06,26,07,04,16.30
2017,06,26,07,05,16.30
2017,06,26,07,06,16.40
2017,06,26,07,07,16.40
2017,06,26,07,08,16.40
2017,06,26,07,09,16.40
2017,06,26,07,10,16.60
2017,06,26,07,11,16.60
2017,06,26,07,12,16.60
2017,06,26,07,13,16.60
2017,06,26,07,14,16.60
2017,06,26,07,15,16.60
2017,06,26,07,16,16.60
2017,06,26,07,17,16.70
2017,06,26,07,18,16.70
2017,06,26,07,19,16.70
2017,06,26,07,20,16.70
2017,06,26,07,21,16.70
2017,06,26,07,22,16.70
2017,06,26,07,23,16.80
2017,06,26,07,24,16.80
2017,06,26,07,25,16.90
2017,06,26,07,26,17.00
2017,06,26,07,27,17.00
2017,06,26,07,28,17.10
2017,06,26,07,29,17.20
2017,06,26,07,30,17.30
2017,06,26,07,31,17.30
2017,06,26,07,32,17.40
2017,06,26,07,33,17.50
2017,06,26,07,34,17.60
2017,06,26,07,35,17.70
2017,06,26,07,36,17.80
2017,06,26,07,37,17.80
2017,06,26,07,38,17.90
2017,06,26,07,39,17.90
2017,06,26,07,40,17.90
2017,06,26,07,41,17.90
2017,06,26,07,42,17.90
2017,06,26,07,43,18.00
2017,06,26,07,44,18.10
2017,06,26,07,45,18.10
2017,06,26,07,46,18.10
2017,06,26,07,47,18.10
2017,06,26,07,48,18.20
2017,06,26,07,49,18.20
2017,06,26,07,50,18.20
2017,06,26,07,51,18.30
2017,06,26,07,52,18.40
2017,06,26,07,53,18.50
2017,06,26,07,54,18.50
2017,06,26,07,55,18.60
2017,06,26,07,56,18.60
2017,06,26,07,57,18.70
2017,06,26,07,58,18.80
2017,06,26,07,59,18.90
2017,06,26,08,00,19.00
2017,06,26,08,01,19.10
2017,06,26,08,02,19.20
2017,06,26,08,03,19.30
2017,06,26,08,04,19.40
2017,06,26,08,05,19.40
2017,06,26,08,06,19.50
2017,06,26,08,07,19.60
2017,06,26,08,08,19.70
2017,06,26,08,09,19.70
2017,06,26,08,10,19.80
2017,06,26,08,11,19.80
2017,06,26,08,12,19.90
2017,06,26,08,13,19.90
2017,06,26,08,14,19.90
2017,06,26,08,15,19.90
2017,06,26,08,16,19.90
2017,06,26,08,17,19.90
2017,06,26,08,18,19.80
2017,06,26,08,19,19.70
2017,06,26,08,20,19.60
2017,06,26,08,21,19.40
2017,06,26,08,22,19.20
2017,06,26,08,23,19.00
2017,06,26,08,24,18.80
2017,06,26,08,25,18.70
2017,06,26,08,26,18.60
2017,06,26,08,27,18.50
2017,06,26,08,28,18.50
2017,06,26,08,29,18.50
2017,06,26,08,30,18.50
2017,06,26,08,31,18.50
2017,06,26,08,32,18.20
2017,06,26,08,33,18.10
2017,06,26,08,34,17.90
2017,06,26,08,35,17.90
2017,06,26,08,36,17.80
2017,06,26,08,37,17.70
2017,06,26,08,38,17.60
2017,06,26,08,39,17.50
2017,06,26,08,40,17.50
2017,06,26,08,41,17.50
2017,06,26,08,42,17.60
2017,06,26,08,43,17.60
2017,06,26,08,44,17.70
2017,06,26,08,45,17.70
2017,06,26,08,46,17.80
2017,06,26,08,47,17.90
2017,06,26,08,48,18.10
2017,06,26,08,49,18.20
2017,06,26,08,50,18.30
2017,06,26,08,51,18.40
2017,06,26,08,52,18.50
2017,06,26,08,53,18.50
2017,06,26,08,54,18.60
2017,06,26,08,55,18.60
2017,06,26,08,56,18.70
2017,06,26,08,57,18.70
2017,06,26,08,58,18.80
2017,06,26,08,59,18.90
2017,06,26,09,00,18.90
2017,06,26,09,01,18.90
2017,06,26,09,02,19.00
2017,06,26,09,03,19.10
2017,06,26,09,04,19.10
2017,06,26,09,05,19.10
2017,06,26,09,06,19.00
2017,06,26,09,07,18.90
2017,06,26,09,08,18.70
2017,06,26,09,09,18.50
2017,06,26,09,10,18.40
2017,06,26,09,11,18.30
2017,06,26,09,12,18.30
2017,06,26,09,13,18.30
2017,06,26,09,14,18.30
2017,06,26,09,15,18.20
2017,06,26,09,16,18.20
2017,06,26,09,17,18.30
2017,06,26,09,18,18.30
2017,06,26,09,19,18.40
2017,06,26,09,20,18.30
2017,06,26,09,21,18.30
2017,06,26,09,22,18.40
2017,06,26,09,23,18.40
2017,06,26,09,24,18.50
2017,06,26,09,25,18.50
2017,06,26,09,26,18.60
2017,06,26,09,27,18.60
2017,06,26,09,28,18.70
2017,06,26,09,29,18.80
2017,06,26,09,30,18.90
2017,06,26,09,31,18.90
2017,06,26,09,32,19.00
2017,06,26,09,33,19.10
2017,06,26,09,34,19.20
2017,06,26,09,35,19.40
2017,06,26,09,36,19.50
2017,06,26,09,37,19.60
2017,06,26,09,38,19.60
2017,06,26,09,39,19.70
2017,06,26,09,40,19.70
2017,06,26,09,41,19.80
2017,06,26,09,42,19.90
2017,06,26,09,43,20.00
2017,06,26,09,44,20.10
2017,06,26,09,45,20.20
2017,06,26,09,46,20.20
2017,06,26,09,47,20.30
2017,06,26,09,48,20.40
2017,06,26,09,49,20.40
2017,06,26,09,50,20.50
2017,06,26,09,51,20.50
2017,06,26,09,52,20.60
2017,06,26,09,53,20.60
2017,06,26,09,54,20.60
2017,06,26,09,55,20.60
2017,06,26,09,56,20.60
2017,06,26,09,57,20.50
2017,06,26,09,58,20.50
2017,06,26,09,59,20.50
2017,06,26,10,00,20.40
2017,06,26,10,01,20.40
2017,06,26,10,02,20.40
2017,06,26,10,03,20.50
2017,06,26,10,04,20.60
2017,06,26,10,05,20.70
2017,06,26,10,06,20.80
2017,06,26,10,07,20.90
2017,06,26,10,08,21.00
2017,06,26,10,09,21.10
2017,06,26,10,10,21.20
2017,06,26,10,11,21.20
2017,06,26,10,12,21.10
2017,06,26,10,13,21.00
2017,06,26,10,14,21.00
2017,06,26,10,15,20.90
2017,06,26,10,16,20.80
2017,06,26,10,17,20.80
2017,06,26,10,18,20.80
2017,06,26,10,19,20.80
2017,06,26,10,20,20.80
2017,06,26,10,21,20.80
2017,06,26,10,22,20.90
2017,06,26,10,23,20.90
2017,06,26,10,24,20.90
2017,06,26,10,25,21.00
2017,06,26,10,26,21.00
2017,06,26,10,27,21.10
2017,06,26,10,28,21.20
2017,06,26,10,29,21.30
2017,06,26,10,30,21.30
2017,06,26,10,31,21.30
2017,06,26,10,32,21.30
2017,06,26,10,33,21.30
2017,06,26,10,34,21.30
2017,06,26,10,35,21.20
2017,06,26,10,36,21.20
2017,06,26,10,37,21.30
2017,06,26,10,38,21.30
2017,06,26,10,39,21.30
2017,06,26,10,40,21.10
2017,06,26,10,41,21.10
2017,06,26,10,42,21.10
2017,06,26,10,43,21.20
2017,06,26,10,44,21.20
2017,06,26,10,45,21.10
2017,06,26,10,46,21.00
2017,06,26,10,47,20.90
2017,06,26,10,48,20.90
2017,06,26,10,49,20.90
2017,06,26,10,50,20.90
2017,06,26,10,51,20.80
2017,06,26,10,52,20.80
2017,06,26,10,53,20.80
2017,06,26,10,54,20.80
2017,06,26,10,55,20.60
2017,06,26,10,56,20.40
2017,06,26,10,57,20.30
2017,06,26,10,58,20.30
2017,06,26,10,59,20.30
2017,06,26,11,00,20.30
2017,06,26,11,01,20.30
2017,06,26,11,02,20.20
2017,06,26,11,03,20.20
2017,06,26,11,04,20.20
2017,06,26,11,05,20.20
2017,06,26,11,06,20.20
2017,06,26,11,07,20.20
2017,06,26,11,08,20.10
2017,06,26,11,09,19.90
2017,06,26,11,10,19.80
2017,06,26,11,11,19.80
2017,06,26,11,12,19.70
2017,06,26,11,13,19.70
2017,06,26,11,14,19.80
2017,06,26,11,15,19.90
2017,06,26,11,16,19.90
2017,06,26,11,17,19.90
2017,06,26,11,18,20.00
2017,06,26,11,19,20.20
2017,06,26,11,20,20.20
2017,06,26,11,21,20.20
2017,06,26,11,22,20.20
2017,06,26,11,23,20.20
2017,06,26,11,24,20.10
2017,06,26,11,25,20.00
2017,06,26,11,26,19.90
2017,06,26,11,27,20.00
2017,06,26,11,28,20.10
2017,06,26,11,29,20.10
2017,06,26,11,30,20.20
2017,06,26,11,31,20.40
2017,06,26,11,32,20.50
2017,06,26,11,33,20.60
2017,06,26,11,34,20.70
2017,06,26,11,35,20.80
2017,06,26,11,36,21.00
2017,06,26,11,37,21.10
2017,06,26,11,38,21.30
2017,06,26,11,39,21.30
2017,06,26,11,40,21.30
2017,06,26,11,41,21.30
2017,06,26,11,42,21.10
2017,06,26,11,43,21.00
2017,06,26,11,44,20.90
2017,06,26,11,45,20.70
2017,06,26,11,46,20.70
2017,06,26,11,47,20.70
2017,06,26,11,48,20.60
2017,06,26,11,49,20.60
2017,06,26,11,50,20.40
2017,06,26,11,51,20.20
2017,06,26,11,52,20.00
2017,06,26,11,53,19.90
2017,06,26,11,54,19.90
2017,06,26,11,55,19.90
2017,06,26,11,56,19.90
2017,06,26,11,57,19.90
2017,06,26,11,58,20.00
2017,06,26,11,59,20.10
2017,06,26,12,00,20.20
2017,06,26,12,01,20.20
2017,06,26,12,02,20.20
2017,06,26,12,03,20.20
2017,06,26,12,04,20.40
2017,06,26,12,05,20.40
2017,06,26,12,06,20.50
2017,06,26,12,07,20.60
2017,06,26,12,08,20.60
2017,06,26,12,09,20.50
2017,06,26,12,10,20.50
2017,06,26,12,11,20.40
2017,06,26,12,12,20.50
2017,06,26,12,13,20.50
2017,06,26,12,14,20.40
2017,06,26,12,15,20.50
2017,06,26,12,16,20.50
2017,06,26,12,17,20.50
2017,06,26,12,18,20.60
2017,06,26,12,19,20.60
2017,06,26,12,20,20.50
2017,06,26,12,21,20.20
2017,06,26,12,22,19.90
2017,06,26,12,23,19.70
2017,06,26,12,24,19.50
2017,06,26,12,25,19.30
2017,06,26,12,26,19.30
2017,06,26,12,27,19.30
2017,06,26,12,28,19.10
2017,06,26,12,29,19.10
2017,06,26,12,30,19.10
2017,06,26,12,31,19.10
2017,06,26,12,32,19.10
2017,06,26,12,33,19.10
2017,06,26,12,34,19.10
2017,06,26,12,35,19.10
2017,06,26,12,36,19.10
2017,06,26,12,37,19.30
2017,06,26,12,38,19.40
2017,06,26,12,39,19.50
2017,06,26,12,40,19.60
2017,06,26,12,41,19.80
2017,06,26,12,42,19.90
2017,06,26,12,43,19.90
2017,06,26,12,44,20.00
2017,06,26,12,45,20.00
2017,06,26,12,46,19.90
2017,06,26,12,47,20.00
2017,06,26,12,48,20.10
2017,06,26,12,49,20.20
2017,06,26,12,50,20.30
2017,06,26,12,51,20.40
2017,06,26,12,52,20.30
2017,06,26,12,53,20.20
2017,06,26,12,54,20.20
2017,06,26,12,55,20.10
2017,06,26,12,56,20.20
2017,06,26,12,57,20.20
2017,06,26,12,58,20.20
2017,06,26,12,59,20.20
2017,06,26,13,00,20.30
2017,06,26,13,01,20.40
2017,06,26,13,02,20.40
2017,06,26,13,03,20.40
2017,06,26,13,04,20.30
2017,06,26,13,05,20.30
2017,06,26,13,06,20.30
2017,06,26,13,07,20.20
2017,06,26,13,08,20.00
2017,06,26,13,09,19.80
2017,06,26,13,10,19.70
2017,06,26,13,11,19.60
2017,06,26,13,12,19.60
2017,06,26,13,13,19.50
2017,06,26,13,14,19.20
2017,06,26,13,15,19.00
2017,06,26,13,16,18.70
2017,06,26,13,17,18.50
2017,06,26,13,18,18.30
2017,06,26,13,19,18.20
2017,06,26,13,20,18.20
2017,06,26,13,21,18.30
2017,06,26,13,22,18.40
2017,06,26,13,23,18.40
2017,06,26,13,24,18.30
2017,06,26,13,25,18.20
2017,06,26,13,26,18.20
2017,06,26,13,27,18.20
2017,06,26,13,28,18.20
2017,06,26,13,29,18.20
2017,06,26,13,30,18.30
2017,06,26,13,31,18.40
2017,06,26,13,32,18.50
2017,06,26,13,33,18.50
2017,06,26,13,34,18.30
2017,06,26,13,35,18.20
2017,06,26,13,36,18.20
2017,06,26,13,37,18.40
2017,06,26,13,38,18.30
2017,06,26,13,39,18.20
2017,06,26,13,40,18.30
2017,06,26,13,41,18.50
2017,06,26,13,42,18.70
2017,06,26,13,43,18.70
2017,06,26,13,44,18.70
2017,06,26,13,45,18.90
2017,06,26,13,46,19.00
2017,06,26,13,47,19.10
2017,06,26,13,48,19.20
2017,06,26,13,49,19.30
2017,06,26,13,50,19.30
2017,06,26,13,51,19.30
2017,06,26,13,52,19.40
2017,06,26,13,53,19.50
2017,06,26,13,54,19.70
2017,06,26,13,55,19.80
2017,06,26,13,56,19.80
2017,06,26,13,57,19.80
2017,06,26,13,58,19.90
2017,06,26,13,59,20.00
2017,06,26,14,00,20.20
2017,06,26,14,01,20.20
2017,06,26,14,02,20.30
2017,06,26,14,03,20.40
2017,06,26,14,04,20.40
2017,06,26,14,05,20.30
2017,06,26,14,06,20.30
2017,06,26,14,07,20.20
2017,06,26,14,08,20.10
2017,06,26,14,09,20.00
2017,06,26,14,10,19.90
2017,06,26,14,11,19.90
2017,06,26,14,12,19.80
2017,06,26,14,13,19.70
2017,06,26,14,14,19.60
2017,06,26,14,15,19.60
2017,06,26,14,16,19.80
2017,06,26,14,17,19.90
2017,06,26,14,18,20.10
2017,06,26,14,19,20.20
2017,06,26,14,20,20.40
2017,06,26,14,21,20.40
2017,06,26,14,22,20.40
2017,06,26,14,23,20.40
2017,06,26,14,24,20.30
2017,06,26,14,25,20.10
2017,06,26,14,26,20.00
2017,06,26,14,27,19.90
2017,06,26,14,28,19.90
2017,06,26,14,29,19.90
2017,06,26,14,30,20.00
2017,06,26,14,31,20.10
2017,06,26,14,32,20.10
2017,06,26,14,33,20.20
2017,06,26,14,34,20.30
2017,06,26,14,35,20.50
2017,06,26,14,36,20.70
2017,06,26,14,37,20.90
2017,06,26,14,38,21.10
2017,06,26,14,39,21.40
2017,06,26,14,40,21.60
2017,06,26,14,41,21.90
2017,06,26,14,42,22.10
2017,06,26,14,43,22.30
2017,06,26,14,44,22.50
2017,06,26,14,45,22.50
2017,06,26,14,46,22.70
2017,06,26,14,47,22.80
2017,06,26,14,48,22.90
2017,06,26,14,49,22.90
2017,06,26,14,50,23.00
2017,06,26,14,51,23.10
2017,06,26,14,52,23.20
2017,06,26,14,53,23.30
2017,06,26,14,54,23.30
2017,06,26,14,55,23.30
2017,06,26,14,56,23.30
2017,06,26,14,57,23.30
2017,06,26,14,58,23.30
2017,06,26,14,59,23.30
2017,06,26,15,00,23.30
2017,06,26,15,01,23.30
2017,06,26,15,02,23.30
2017,06,26,15,03,23.30
2017,06,26,15,04,23.30
2017,06,26,15,05,23.10
2017,06,26,15,06,22.90
2017,06,26,15,07,22.70
2017,06,26,15,08,22.60
2017,06,26,15,09,22.30
2017,06,26,15,10,22.10
2017,06,26,15,11,22.00
2017,06,26,15,12,21.70
2017,06,26,15,13,21.50
2017,06,26,15,14,21.40
2017,06,26,15,15,21.30
2017,06,26,15,16,21.20
2017,06,26,15,17,21.10
2017,06,26,15,18,21.00
2017,06,26,15,19,21.00
2017,06,26,15,20,21.00
2017,06,26,15,21,21.10
2017,06,26,15,22,21.10
2017,06,26,15,23,21.20
2017,06,26,15,24,21.30
2017,06,26,15,25,21.30
2017,06,26,15,26,21.20
2017,06,26,15,27,21.10
2017,06,26,15,28,21.00
2017,06,26,15,29,21.00
2017,06,26,15,30,21.00
2017,06,26,15,31,20.90
2017,06,26,15,32,20.80
2017,06,26,15,33,20.80
2017,06,26,15,34,20.70
2017,06,26,15,35,20.70
2017,06,26,15,36,20.70
2017,06,26,15,37,20.80
2017,06,26,15,38,20.90
2017,06,26,15,39,20.90
2017,06,26,15,40,20.80
2017,06,26,15,41,20.70
2017,06,26,15,42,20.70
2017,06,26,15,43,20.60
2017,06,26,15,44,20.60
2017,06,26,15,45,20.60
2017,06,26,15,46,20.60
2017,06,26,15,47,20.60
2017,06,26,15,48,20.60
2017,06,26,15,49,20.50
2017,06,26,15,50,20.40
2017,06,26,15,51,20.20
2017,06,26,15,52,20.20
2017,06,26,15,53,20.10
2017,06,26,15,54,20.00
2017,06,26,15,55,19.90
2017,06,26,15,56,19.80
2017,06,26,15,57,19.70
2017,06,26,15,58,19.70
2017,06,26,15,59,19.70
2017,06,26,16,00,19.70
2017,06,26,16,01,19.80
2017,06,26,16,02,19.90
2017,06,26,16,03,20.00
2017,06,26,16,04,20.20
2017,06,26,16,05,20.20
2017,06,26,16,06,20.20
2017,06,26,16,07,20.20
2017,06,26,16,08,20.20
2017,06,26,16,09,20.10
2017,06,26,16,10,20.00
2017,06,26,16,11,19.90
2017,06,26,16,12,19.90
2017,06,26,16,13,19.90
2017,06,26,16,14,20.00
2017,06,26,16,15,20.10
2017,06,26,16,16,20.10
2017,06,26,16,17,20.10
2017,06,26,16,18,20.00
2017,06,26,16,19,19.90
2017,06,26,16,20,19.90
2017,06,26,16,21,19.90
2017,06,26,16,22,19.90
2017,06,26,16,23,19.90
2017,06,26,16,24,19.90
2017,06,26,16,25,19.90
2017,06,26,16,26,19.90
2017,06,26,16,27,19.90
2017,06,26,16,28,19.90
2017,06,26,16,29,19.90
2017,06,26,16,30,19.90
2017,06,26,16,31,20.00
2017,06,26,16,32,20.10
2017,06,26,16,33,20.10
2017,06,26,16,34,20.10
2017,06,26,16,35,20.20
2017,06,26,16,36,20.30
2017,06,26,16,37,20.40
2017,06,26,16,38,20.40
2017,06,26,16,39,20.50
2017,06,26,16,40,20.50
2017,06,26,16,41,20.40
2017,06,26,16,42,20.30
2017,06,26,16,43,20.30
2017,06,26,16,44,20.30
2017,06,26,16,45,20.20
2017,06,26,16,46,20.20
2017,06,26,16,47,20.20
2017,06,26,16,48,20.10
2017,06,26,16,49,20.00
2017,06,26,16,50,19.90
2017,06,26,16,51,19.90
2017,06,26,16,52,19.90
2017,06,26,16,53,19.90
2017,06,26,16,54,19.90
2017,06,26,16,55,19.90
2017,06,26,16,56,20.10
2017,06,26,16,57,20.10
2017,06,26,16,58,20.20
2017,06,26,16,59,20.20
2017,06,26,17,00,20.30
2017,06,26,17,01,20.40
2017,06,26,17,02,20.60
2017,06,26,17,03,20.70
2017,06,26,17,04,20.70
2017,06,26,17,05,20.80
2017,06,26,17,06,20.90
2017,06,26,17,07,21.00
2017,06,26,17,08,21.00
2017,06,26,17,09,21.00
2017,06,26,17,10,20.90
2017,06,26,17,11,20.90
2017,06,26,17,12,20.90
2017,06,26,17,13,20.90
2017,06,26,17,14,20.90
2017,06,26,17,15,20.90
2017,06,26,17,16,20.90
2017,06,26,17,17,20.90
2017,06,26,17,18,21.00
2017,06,26,17,19,21.10